| time (UTC) | temp F | wind direction | speed MPH | gust MPH | rain 1hr in | rain 24hr in | rain mn in | humidity % | barometer mb |
| 20260906231154 | 94 | 214 | 0.0 | 7.0 | 0.00 | 0.00 | 0.00 | 19 | 1018.7 |
| 20260906230653 | 94 | 215 | 7.0 | 9.0 | 0.00 | 0.00 | 0.00 | 19 | 1018.6 |
| 20260906230148 | 95 | 200 | 3.0 | 6.0 | 0.00 | 0.00 | 0.00 | 19 | 1018.9 |
| 20260906225642 | 94 | 241 | 8.0 | 10.0 | 0.00 | 0.00 | 0.00 | 19 | 1018.7 |
| 20260906225138 | 94 | 124 | 4.0 | 9.0 | 0.00 | 0.00 | 0.00 | 20 | 1018.7 |
| 20260906224632 | 96 | 197 | 1.0 | 3.0 | 0.00 | 0.00 | 0.00 | 19 | 1018.8 |
| 20260906224129 | 95 | 209 | 2.0 | 6.0 | 0.00 | 0.00 | 0.00 | 18 | 1018.7 |
| 20260906223625 | 95 | 155 | 1.0 | 3.0 | 0.00 | 0.00 | 0.00 | 19 | 1018.7 |
| 20260906223125 | 95 | 156 | 1.0 | 6.0 | 0.00 | 0.00 | 0.00 | 19 | 1018.8 |
| 20260906222624 | 95 | 163 | 3.0 | 8.0 | 0.00 | 0.00 | 0.00 | 19 | 1018.9 |
| 20260906222122 | 94 | 206 | 11.0 | 15.0 | 0.00 | 0.00 | 0.00 | 20 | 1018.8 |
| 20260906221621 | 95 | 243 | 5.0 | 11.0 | 0.00 | 0.00 | 0.00 | 19 | 1018.9 |
| 20260906221115 | 95 | 311 | 1.0 | 3.0 | 0.00 | 0.00 | 0.00 | 19 | 1018.9 |
| 20260906220611 | 95 | 263 | 2.0 | 4.0 | 0.00 | 0.00 | 0.00 | 19 | 1019.0 |
| 20260906220106 | 95 | 219 | 3.0 | 4.0 | 0.00 | 0.00 | 0.00 | 19 | 1019.0 |
| 20260906215605 | 95 | 234 | 2.0 | 7.0 | 0.00 | 0.00 | 0.00 | 19 | 1019.3 |
| 20260906215103 | 93 | 117 | 1.0 | 4.0 | 0.00 | 0.00 | 0.00 | 19 | 1019.3 |
| 20260906214601 | 94 | 236 | 2.0 | 3.0 | 0.00 | 0.00 | 0.00 | 18 | 1019.6 |
| 20260906214057 | 95 | 243 | 2.0 | 2.0 | 0.00 | 0.00 | 0.00 | 20 | 1019.6 |
| 20260906213556 | 96 | 234 | 4.0 | 7.0 | 0.00 | 0.00 | 0.00 | 18 | 1019.7 |
| 20260906213051 | 94 | 199 | 0.0 | 1.0 | 0.00 | 0.00 | 0.00 | 19 | 1019.7 |
| 20260906212544 | 93 | 244 | 7.0 | 10.0 | 0.00 | 0.00 | 0.00 | 19 | 1020.1 |
| 20260906212039 | 94 | 256 | 5.0 | 8.0 | 0.00 | 0.00 | 0.00 | 18 | 1020.0 |
| 20260906211533 | 95 | 282 | 8.0 | 9.0 | 0.00 | 0.00 | 0.00 | 17 | 1019.8 |
| 20260906211029 | 95 | 238 | 4.0 | 9.0 | 0.00 | 0.00 | 0.00 | 18 | 1020.1 |
| 20260906210523 | 95 | 228 | 3.0 | 6.0 | 0.00 | 0.00 | 0.00 | 18 | 1020.1 |
| 20260906210018 | 94 | 189 | 2.0 | 4.0 | 0.00 | 0.00 | 0.00 | 19 | 1020.2 |
| 20260906205514 | 92 | 293 | 2.0 | 6.0 | 0.00 | 0.00 | 0.00 | 18 | 1020.6 |
| 20260906205009 | 93 | 281 | 7.0 | 9.0 | 0.00 | 0.00 | 0.00 | 18 | 1020.4 |
| 20260906204508 | 93 | 234 | 0.0 | 3.0 | 0.00 | 0.00 | 0.00 | 18 | 1020.6 |
| 20260906204003 | 94 | 225 | 4.0 | 7.0 | 0.00 | 0.00 | 0.00 | 18 | 1020.7 |
| 20260906203458 | 93 | 265 | 4.0 | 8.0 | 0.00 | 0.00 | 0.00 | 18 | 1020.8 |
| 20260906202955 | 96 | 167 | 2.0 | 6.0 | 0.00 | 0.00 | 0.00 | 18 | 1020.9 |
| 20260906202448 | 96 | 112 | 1.0 | 4.0 | 0.00 | 0.00 | 0.00 | 18 | 1020.8 |
| 20260906201943 | 94 | 284 | 2.0 | 3.0 | 0.00 | 0.00 | 0.00 | 19 | 1020.8 |
| 20260906201438 | 91 | 125 | 3.0 | 4.0 | 0.00 | 0.00 | 0.00 | 19 | 1020.9 |
| 20260906200932 | 93 | 251 | 3.0 | 8.0 | 0.00 | 0.00 | 0.00 | 19 | 1021.0 |
| 20260906200423 | 94 | 284 | 5.0 | 6.0 | 0.00 | 0.00 | 0.00 | 18 | 1020.9 |
| 20260906195918 | 92 | 282 | 3.0 | 6.0 | 0.00 | 0.00 | 0.00 | 19 | 1021.1 |
| 20260906195414 | 93 | 289 | 3.0 | 3.0 | 0.00 | 0.00 | 0.00 | 19 | 1021.0 |
| 20260906194910 | 91 | 57 | 3.0 | 7.0 | 0.00 | 0.00 | 0.00 | 20 | 1021.3 |
| 20260906194405 | 91 | 269 | 5.0 | 7.0 | 0.00 | 0.00 | 0.00 | 20 | 1021.4 |
| 20260906193901 | 93 | 317 | 4.0 | 4.0 | 0.00 | 0.00 | 0.00 | 19 | 1021.5 |
| 20260906193355 | 94 | 247 | 1.0 | 3.0 | 0.00 | 0.00 | 0.00 | 19 | 1021.7 |
| 20260906192851 | 92 | 231 | 3.0 | 6.0 | 0.00 | 0.00 | 0.00 | 19 | 1021.7 |
| 20260906192345 | 92 | 21 | 3.0 | 4.0 | 0.00 | 0.00 | 0.00 | 19 | 1021.8 |
| 20260906191844 | 92 | 62 | 0.0 | 2.0 | 0.00 | 0.00 | 0.00 | 18 | 1021.7 |
| 20260906191338 | 90 | 86 | 2.0 | 6.0 | 0.00 | 0.00 | 0.00 | 20 | 1022.1 |
| 20260906190833 | 91 | 47 | 4.0 | 6.0 | 0.00 | 0.00 | 0.00 | 19 | 1022.0 |
| 20260906190327 | 90 | 22 | 2.0 | 6.0 | 0.00 | 0.00 | 0.00 | 18 | 1022.3 |
| 20260906185827 | 91 | 354 | 2.0 | 6.0 | 0.00 | 0.00 | 0.00 | 19 | 1022.2 |
| 20260906185326 | 91 | 47 | 2.0 | 4.0 | 0.00 | 0.00 | 0.00 | 18 | 1022.2 |
| 20260906184820 | 90 | 217 | 1.0 | 2.0 | 0.00 | 0.00 | 0.00 | 19 | 1022.7 |
| 20260906184316 | 90 | 73 | 4.0 | 7.0 | 0.00 | 0.00 | 0.00 | 19 | 1022.2 |
| 20260906183811 | 91 | 26 | 3.0 | 6.0 | 0.00 | 0.00 | 0.00 | 20 | 1022.7 |
| 20260906183308 | 91 | 121 | 1.0 | 2.0 | 0.00 | 0.00 | 0.00 | 21 | 1022.7 |
| 20260906182808 | 91 | 124 | 1.0 | 2.0 | 0.00 | 0.00 | 0.00 | 20 | 1023.0 |
| 20260906182306 | 89 | 295 | 4.0 | 6.0 | 0.00 | 0.00 | 0.00 | 20 | 1023.0 |
| 20260906181758 | 88 | 320 | 3.0 | 4.0 | 0.00 | 0.00 | 0.00 | 20 | 1023.0 |
| 20260906181255 | 87 | 345 | 1.0 | 2.0 | 0.00 | 0.00 | 0.00 | 21 | 1023.4 |
| 20260906180754 | 87 | 17 | 1.0 | 4.0 | 0.00 | 0.00 | 0.00 | 22 | 1023.2 |
| 20260906180249 | 88 | 83 | 2.0 | 2.0 | 0.00 | 0.00 | 0.00 | 22 | 1023.2 |
| 20260906175746 | 89 | 71 | 2.0 | 3.0 | 0.00 | 0.00 | 0.00 | 22 | 1023.2 |
| 20260906175243 | 88 | 348 | 2.0 | 3.0 | 0.00 | 0.00 | 0.00 | 23 | 1023.4 |
| 20260906174741 | 87 | 43 | 3.0 | 4.0 | 0.00 | 0.00 | 0.00 | 24 | 1023.5 |
| 20260906174240 | 87 | 40 | 4.0 | 8.0 | 0.00 | 0.00 | 0.00 | 25 | 1023.6 |
| 20260906173736 | 86 | 53 | 2.0 | 7.0 | 0.00 | 0.00 | 0.00 | 26 | 1023.7 |
| 20260906173232 | 87 | 112 | 1.0 | 6.0 | 0.00 | 0.00 | 0.00 | 25 | 1023.7 |
| 20260906172731 | 85 | 77 | 1.0 | 4.0 | 0.00 | 0.00 | 0.00 | 27 | 1023.7 |
| 20260906172226 | 84 | 36 | 1.0 | 6.0 | 0.00 | 0.00 | 0.00 | 27 | 1023.5 |
| 20260906171727 | 85 | 5 | 3.0 | 6.0 | 0.00 | 0.00 | 0.00 | 28 | 1023.8 |
| 20260906171222 | 84 | 70 | 4.0 | 7.0 | 0.00 | 0.00 | 0.00 | 28 | 1023.8 |
| 20260906170718 | 84 | 83 | 1.0 | 3.0 | 0.00 | 0.00 | 0.00 | 28 | 1023.9 |
| 20260906170213 | 83 | 55 | 4.0 | 8.0 | 0.00 | 0.00 | 0.00 | 29 | 1023.8 |
| 20260906165709 | 84 | 56 | 7.0 | 10.0 | 0.00 | 0.00 | 0.00 | 30 | 1024.1 |
| 20260906165204 | 83 | 26 | 3.0 | 7.0 | 0.00 | 0.00 | 0.00 | 30 | 1023.9 |
| 20260906164703 | 82 | 24 | 5.0 | 9.0 | 0.00 | 0.00 | 0.00 | 29 | 1024.1 |
| 20260906164159 | 81 | 41 | 4.0 | 8.0 | 0.00 | 0.00 | 0.00 | 30 | 1024.1 |
| 20260906163654 | 82 | 21 | 5.0 | 10.0 | 0.00 | 0.00 | 0.00 | 30 | 1023.9 |
| 20260906163150 | 81 | 36 | 4.0 | 9.0 | 0.00 | 0.00 | 0.00 | 30 | 1023.9 |
| 20260906162647 | 80 | 20 | 6.0 | 7.0 | 0.00 | 0.00 | 0.00 | 32 | 1024.1 |
| 20260906162146 | 80 | 23 | 4.0 | 8.0 | 0.00 | 0.00 | 0.00 | 32 | 1023.9 |
| 20260906161641 | 80 | 21 | 5.0 | 10.0 | 0.00 | 0.00 | 0.00 | 32 | 1024.1 |
| 20260906161140 | 80 | 7 | 5.0 | 9.0 | 0.00 | 0.00 | 0.00 | 32 | 1024.1 |
| 20260906160639 | 81 | 0 | 6.0 | 8.0 | 0.00 | 0.00 | 0.00 | 31 | 1024.2 |
| 20260906160133 | 80 | 22 | 4.0 | 10.0 | 0.00 | 0.00 | 0.00 | 32 | 1023.8 |
| 20260906155631 | 80 | 341 | 4.0 | 6.0 | 0.00 | 0.00 | 0.00 | 31 | 1024.1 |
| 20260906155127 | 79 | 352 | 7.0 | 8.0 | 0.00 | 0.00 | 0.00 | 32 | 1024.1 |
| 20260906154621 | 80 | 26 | 7.0 | 9.0 | 0.00 | 0.00 | 0.00 | 32 | 1023.8 |
| 20260906154121 | 79 | 26 | 5.0 | 9.0 | 0.00 | 0.00 | 0.00 | 32 | 1023.9 |
| 20260906153620 | 79 | 11 | 3.0 | 8.0 | 0.00 | 0.00 | 0.00 | 32 | 1023.8 |
| 20260906153114 | 78 | 0 | 5.0 | 7.0 | 0.00 | 0.00 | 0.00 | 32 | 1024.1 |
| 20260906152610 | 78 | 359 | 4.0 | 7.0 | 0.00 | 0.00 | 0.00 | 32 | 1023.7 |
| 20260906152103 | 77 | 326 | 4.0 | 8.0 | 0.00 | 0.00 | 0.00 | 32 | 1023.8 |
| 20260906151558 | 77 | 307 | 8.0 | 9.0 | 0.00 | 0.00 | 0.00 | 32 | 1023.8 |
| 20260906151054 | 76 | 306 | 5.0 | 8.0 | 0.00 | 0.00 | 0.00 | 32 | 1023.9 |
| 20260906150549 | 76 | 316 | 8.0 | 9.0 | 0.00 | 0.00 | 0.00 | 33 | 1024.1 |
| 20260906150044 | 76 | 353 | 8.0 | 11.0 | 0.00 | 0.00 | 0.00 | 33 | 1023.9 |
| 20260906145543 | 75 | 326 | 8.0 | 11.0 | 0.00 | 0.00 | 0.00 | 34 | 1023.8 |
| 20260906145038 | 75 | 323 | 5.0 | 9.0 | 0.00 | 0.00 | 0.00 | 33 | 1023.9 |
| 20260906144532 | 75 | 308 | 6.0 | 9.0 | 0.00 | 0.00 | 0.00 | 33 | 1023.8 |
| 20260906144028 | 75 | 231 | 7.0 | 13.0 | 0.00 | 0.00 | 0.00 | 33 | 1023.8 |
| 20260906143523 | 75 | 314 | 9.0 | 11.0 | 0.00 | 0.00 | 0.00 | 33 | 1024.1 |
| 20260906143019 | 74 | 304 | 8.0 | 13.0 | 0.00 | 0.00 | 0.00 | 33 | 1023.8 |
| 20260906142513 | 73 | 324 | 9.0 | 15.0 | 0.00 | 0.00 | 0.00 | 34 | 1023.9 |
| 20260906142009 | 73 | 292 | 5.0 | 13.0 | 0.00 | 0.00 | 0.00 | 34 | 1023.9 |
| 20260906141508 | 74 | 302 | 11.0 | 15.0 | 0.00 | 0.00 | 0.00 | 34 | 1023.7 |
| 20260906141003 | 74 | 344 | 6.0 | 9.0 | 0.00 | 0.00 | 0.00 | 33 | 1023.7 |
| 20260906140457 | 75 | 337 | 3.0 | 8.0 | 0.00 | 0.00 | 0.00 | 33 | 1023.8 |
| 20260906135955 | 75 | 10 | 4.0 | 8.0 | 0.00 | 0.00 | 0.00 | 33 | 1023.4 |
| 20260906135454 | 74 | 335 | 4.0 | 4.0 | 0.00 | 0.00 | 0.00 | 33 | 1023.7 |
| 20260906134949 | 73 | 31 | 4.0 | 6.0 | 0.00 | 0.00 | 0.00 | 34 | 1023.5 |
| 20260906134444 | 73 | 30 | 1.0 | 4.0 | 0.00 | 0.00 | 0.00 | 34 | 1023.8 |
| 20260906133939 | 73 | 67 | 0.0 | 2.0 | 0.00 | 0.00 | 0.00 | 34 | 1023.5 |
| 20260906133435 | 73 | 46 | 1.0 | 2.0 | 0.00 | 0.00 | 0.00 | 34 | 1023.4 |
| 20260906132930 | 73 | 271 | 4.0 | 6.0 | 0.00 | 0.00 | 0.00 | 34 | 1023.1 |
| 20260906132425 | 71 | 325 | 4.0 | 4.0 | 0.00 | 0.00 | 0.00 | 35 | 1023.5 |
| 20260906131920 | 69 | 316 | 2.0 | 4.0 | 0.00 | 0.00 | 0.00 | 37 | 1023.4 |
| 20260906131416 | 69 | 122 | 0.0 | 0.0 | 0.00 | 0.00 | 0.00 | 38 | 1023.2 |
| 20260906130912 | 70 | 88 | 2.0 | 3.0 | 0.00 | 0.00 | 0.00 | 37 | 1023.4 |
| 20260906130411 | 71 | 156 | 2.0 | 3.0 | 0.00 | 0.00 | 0.00 | 36 | 1023.2 |
| 20260906125905 | 71 | 308 | 5.0 | 8.0 | 0.00 | 0.00 | 0.00 | 36 | 1023.1 |
| 20260906125402 | 71 | 309 | 7.0 | 8.0 | 0.00 | 0.00 | 0.00 | 36 | 1023.0 |
| 20260906124857 | 70 | 315 | 5.0 | 8.0 | 0.00 | 0.00 | 0.00 | 37 | 1023.0 |
| 20260906124353 | 70 | 336 | 4.0 | 7.0 | 0.00 | 0.00 | 0.00 | 36 | 1022.8 |
| 20260906123852 | 70 | 298 | 4.0 | 7.0 | 0.00 | 0.00 | 0.00 | 36 | 1023.0 |
| 20260906123347 | 71 | 308 | 4.0 | 6.0 | 0.00 | 0.00 | 0.00 | 36 | 1022.9 |
| 20260906122847 | 70 | 328 | 4.0 | 4.0 | 0.00 | 0.00 | 0.00 | 36 | 1023.1 |
| 20260906122341 | 69 | 301 | 3.0 | 6.0 | 0.00 | 0.00 | 0.00 | 37 | 1023.0 |
| 20260906121838 | 68 | 302 | 2.0 | 2.0 | 0.00 | 0.00 | 0.00 | 38 | 1023.1 |
| 20260906121334 | 68 | 82 | 0.0 | 0.0 | 0.00 | 0.00 | 0.00 | 39 | 1023.1 |
| 20260906120830 | 69 | 342 | 0.0 | 1.0 | 0.00 | 0.00 | 0.00 | 38 | 1023.1 |
| 20260906120326 | 68 | 355 | 2.0 | 2.0 | 0.00 | 0.00 | 0.00 | 38 | 1023.1 |
| 20260906115822 | 69 | 358 | 0.0 | 2.0 | 0.00 | 0.00 | 0.00 | 38 | 1023.0 |
| 20260906115317 | 68 | 32 | 2.0 | 3.0 | 0.00 | 0.00 | 0.00 | 38 | 1022.8 |
| 20260906114816 | 68 | 71 | 1.0 | 2.0 | 0.00 | 0.00 | 0.00 | 38 | 1022.8 |
| 20260906114311 | 68 | 130 | 1.0 | 2.0 | 0.00 | 0.00 | 0.00 | 39 | 1023.0 |
| 20260906113806 | 68 | 173 | 0.0 | 1.0 | 0.00 | 0.00 | 0.00 | 39 | 1023.1 |
| 20260906113305 | 68 | 201 | 0.0 | 1.0 | 0.00 | 0.00 | 0.00 | 39 | 1022.8 |
| 20260906112800 | 69 | 210 | 0.0 | 1.0 | 0.00 | 0.00 | 0.00 | 38 | 1022.8 |
| 20260906112251 | 69 | 198 | 0.0 | 0.0 | 0.00 | 0.00 | 0.00 | 38 | 1022.9 |
| 20260906111751 | 70 | 186 | 0.0 | 1.0 | 0.00 | 0.00 | 0.00 | 37 | 1023.0 |
| 20260906111250 | 71 | 202 | 0.0 | 0.0 | 0.00 | 0.00 | 0.00 | 36 | 1022.9 |
| 20260906110745 | 71 | 250 | 1.0 | 1.0 | 0.00 | 0.00 | 0.00 | 36 | 1022.9 |
| 20260906110241 | 71 | 334 | 0.0 | 1.0 | 0.00 | 0.00 | 0.00 | 36 | 1022.8 |
| 20260906105740 | 70 | 251 | 1.0 | 1.0 | 0.00 | 0.00 | 0.00 | 36 | 1022.7 |
| 20260906105236 | 71 | 219 | 1.0 | 3.0 | 0.00 | 0.00 | 0.00 | 36 | 1022.9 |
| 20260906104731 | 71 | 202 | 1.0 | 2.0 | 0.00 | 0.00 | 0.00 | 36 | 1022.8 |
| 20260906104230 | 71 | 179 | 0.0 | 0.0 | 0.00 | 0.00 | 0.00 | 36 | 1022.7 |
| 20260906103728 | 71 | 160 | 1.0 | 1.0 | 0.00 | 0.00 | 0.00 | 36 | 1022.8 |
| 20260906103222 | 72 | 127 | 0.0 | 0.0 | 0.00 | 0.00 | 0.00 | 36 | 1022.5 |
| 20260906102718 | 72 | 65 | 1.0 | 2.0 | 0.00 | 0.00 | 0.00 | 35 | 1022.8 |
| 20260906102217 | 73 | 280 | 1.0 | 2.0 | 0.00 | 0.00 | 0.00 | 34 | 1022.4 |
| 20260906101712 | 73 | 286 | 2.0 | 4.0 | 0.00 | 0.00 | 0.00 | 34 | 1022.5 |
| 20260906101207 | 73 | 299 | 3.0 | 4.0 | 0.00 | 0.00 | 0.00 | 34 | 1022.5 |
| 20260906100702 | 74 | 303 | 5.0 | 7.0 | 0.00 | 0.00 | 0.00 | 34 | 1022.5 |
| 20260906100157 | 73 | 313 | 3.0 | 7.0 | 0.00 | 0.00 | 0.00 | 34 | 1022.5 |
| 20260906095652 | 73 | 258 | 3.0 | 4.0 | 0.00 | 0.00 | 0.00 | 34 | 1022.4 |
| 20260906095147 | 73 | 294 | 3.0 | 6.0 | 0.00 | 0.00 | 0.00 | 35 | 1022.3 |
| 20260906094646 | 73 | 252 | 2.0 | 2.0 | 0.00 | 0.00 | 0.00 | 35 | 1022.5 |
| 20260906094142 | 72 | 216 | 0.0 | 1.0 | 0.00 | 0.00 | 0.00 | 36 | 1022.5 |
| 20260906093637 | 72 | 213 | 0.0 | 1.0 | 0.00 | 0.00 | 0.00 | 35 | 1022.3 |
| 20260906093132 | 72 | 200 | 0.0 | 1.0 | 0.00 | 0.00 | 0.00 | 35 | 1022.3 |
| 20260906092627 | 73 | 119 | 2.0 | 2.0 | 0.00 | 0.00 | 0.00 | 35 | 1022.3 |
| 20260906092122 | 73 | 272 | 0.0 | 2.0 | 0.00 | 0.00 | 0.00 | 34 | 1022.3 |
| 20260906091618 | 73 | 282 | 1.0 | 2.0 | 0.00 | 0.00 | 0.00 | 34 | 1022.3 |
| 20260906091115 | 73 | 261 | 1.0 | 1.0 | 0.00 | 0.00 | 0.00 | 34 | 1022.2 |
| 20260906090614 | 73 | 4 | 2.0 | 3.0 | 0.00 | 0.00 | 0.00 | 34 | 1022.4 |
| 20260906090109 | 74 | 21 | 0.0 | 1.0 | 0.00 | 0.00 | 0.00 | 34 | 1022.2 |
| 20260906085608 | 74 | 0 | 1.0 | 1.0 | 0.00 | 0.00 | 0.00 | 34 | 1022.2 |
| 20260906085103 | 75 | 344 | 1.0 | 3.0 | 0.00 | 0.00 | 0.00 | 33 | 1022.3 |
| 20260906084557 | 74 | 296 | 2.0 | 4.0 | 0.00 | 0.00 | 0.00 | 33 | 1022.1 |
| 20260906084056 | 74 | 253 | 2.0 | 4.0 | 0.00 | 0.00 | 0.00 | 33 | 1022.2 |
| 20260906083552 | 74 | 269 | 3.0 | 4.0 | 0.00 | 0.00 | 0.00 | 33 | 1022.5 |
| 20260906083051 | 74 | 273 | 3.0 | 3.0 | 0.00 | 0.00 | 0.00 | 34 | 1022.2 |
| 20260906082547 | 74 | 293 | 3.0 | 6.0 | 0.00 | 0.00 | 0.00 | 34 | 1022.3 |
| 20260906082043 | 74 | 273 | 3.0 | 6.0 | 0.00 | 0.00 | 0.00 | 33 | 1022.3 |
| 20260906081538 | 74 | 270 | 4.0 | 6.0 | 0.00 | 0.00 | 0.00 | 33 | 1022.3 |
| 20260906081033 | 74 | 255 | 3.0 | 4.0 | 0.00 | 0.00 | 0.00 | 33 | 1022.3 |
| 20260906080530 | 74 | 262 | 3.0 | 4.0 | 0.00 | 0.00 | 0.00 | 33 | 1022.4 |
| 20260906080025 | 73 | 254 | 2.0 | 2.0 | 0.00 | 0.00 | 0.00 | 34 | 1022.7 |
| 20260906075519 | 74 | 252 | 0.0 | 1.0 | 0.00 | 0.00 | 0.00 | 34 | 1022.5 |
| 20260906075014 | 75 | 243 | 1.0 | 2.0 | 0.00 | 0.00 | 0.00 | 33 | 1022.3 |
| 20260906074509 | 74 | 253 | 2.0 | 3.0 | 0.00 | 0.00 | 0.00 | 34 | 1022.5 |
| 20260906074007 | 74 | 232 | 1.0 | 1.0 | 0.00 | 0.00 | 0.00 | 34 | 1022.9 |
| 20260906073502 | 74 | 258 | 3.0 | 3.0 | 0.00 | 0.00 | 0.00 | 33 | 1022.8 |
| 20260906072958 | 75 | 21 | 1.0 | 1.0 | 0.00 | 0.00 | 0.00 | 33 | 1022.8 |
| 20260906072453 | 75 | 331 | 1.0 | 2.0 | 0.00 | 0.00 | 0.00 | 33 | 1022.8 |
| 20260906071949 | 75 | 28 | 1.0 | 2.0 | 0.00 | 0.00 | 0.00 | 33 | 1022.8 |
| 20260906071446 | 76 | 243 | 0.0 | 1.0 | 0.00 | 0.00 | 0.00 | 32 | 1022.8 |
| 20260906070941 | 76 | 275 | 1.0 | 1.0 | 0.00 | 0.00 | 0.00 | 32 | 1022.7 |
| 20260906070437 | 75 | 244 | 1.0 | 1.0 | 0.00 | 0.00 | 0.00 | 33 | 1022.4 |
| 20260906065932 | 76 | 224 | 0.0 | 0.0 | 0.00 | 0.00 | 0.00 | 32 | 1022.8 |
| 20260906065427 | 78 | 260 | 1.0 | 2.0 | 0.00 | 0.00 | 0.00 | 31 | 1022.7 |
| 20260906064922 | 79 | 44 | 1.0 | 3.0 | 0.00 | 0.00 | 0.00 | 30 | 1022.9 |
| 20260906064419 | 78 | 16 | 2.0 | 3.0 | 0.00 | 0.00 | 0.00 | 31 | 1022.9 |
| 20260906063918 | 78 | 39 | 3.0 | 6.0 | 0.00 | 0.00 | 0.00 | 30 | 1022.7 |
| 20260906063414 | 78 | 72 | 3.0 | 6.0 | 0.00 | 0.00 | 0.00 | 31 | 1022.4 |
| 20260906062909 | 77 | 104 | 2.0 | 3.0 | 0.00 | 0.00 | 0.00 | 31 | 1022.4 |
| 20260906062409 | 76 | 92 | 1.0 | 2.0 | 0.00 | 0.00 | 0.00 | 33 | 1022.4 |
| 20260906061903 | 75 | 155 | 0.0 | 0.0 | 0.00 | 0.00 | 0.00 | 33 | 1022.4 |
| 20260906061400 | 74 | 221 | 1.0 | 1.0 | 0.00 | 0.00 | 0.00 | 34 | 1022.3 |
| 20260906060854 | 75 | 117 | 1.0 | 1.0 | 0.00 | 0.00 | 0.00 | 34 | 1022.2 |
| 20260906060352 | 75 | 199 | 0.0 | 0.0 | 0.00 | 0.00 | 0.00 | 33 | 1022.2 |
| 20260906055847 | 76 | 184 | 0.0 | 0.0 | 0.00 | 0.00 | 0.00 | 33 | 1022.2 |
| 20260906055343 | 76 | 89 | 2.0 | 2.0 | 0.00 | 0.00 | 0.00 | 32 | 1022.3 |
| 20260906054838 | 76 | 113 | 1.0 | 2.0 | 0.00 | 0.00 | 0.00 | 32 | 1022.1 |
| 20260906054332 | 76 | 107 | 1.0 | 2.0 | 0.00 | 0.00 | 0.00 | 32 | 1022.0 |
| 20260906053829 | 77 | 212 | 0.0 | 1.0 | 0.00 | 0.00 | 0.00 | 32 | 1022.1 |
| 20260906053325 | 77 | 251 | 1.0 | 3.0 | 0.00 | 0.00 | 0.00 | 32 | 1022.1 |
| 20260906052820 | 78 | 271 | 4.0 | 4.0 | 0.00 | 0.00 | 0.00 | 31 | 1022.1 |
| 20260906052316 | 79 | 286 | 4.0 | 7.0 | 0.00 | 0.00 | 0.00 | 30 | 1022.1 |
| 20260906051813 | 79 | 309 | 4.0 | 7.0 | 0.00 | 0.00 | 0.00 | 30 | 1022.1 |
| 20260906051312 | 80 | 262 | 7.0 | 9.0 | 0.00 | 0.00 | 0.00 | 30 | 1021.8 |
| 20260906050808 | 79 | 293 | 6.0 | 10.0 | 0.00 | 0.00 | 0.00 | 29 | 1021.7 |
| 20260906050303 | 80 | 300 | 5.0 | 6.0 | 0.00 | 0.00 | 0.00 | 30 | 1021.8 |
| 20260906045801 | 80 | 309 | 7.0 | 8.0 | 0.00 | 0.00 | 0.00 | 29 | 1022.0 |
| 20260906045256 | 80 | 297 | 5.0 | 7.0 | 0.00 | 0.00 | 0.00 | 29 | 1022.0 |
| 20260906044753 | 80 | 291 | 4.0 | 6.0 | 0.00 | 0.00 | 0.00 | 29 | 1021.8 |
| 20260906044247 | 80 | 268 | 4.0 | 7.0 | 0.00 | 0.00 | 0.00 | 29 | 1022.0 |
| 20260906043743 | 80 | 279 | 4.0 | 7.0 | 0.00 | 0.00 | 0.00 | 29 | 1021.8 |
| 20260906043239 | 79 | 271 | 5.0 | 6.0 | 0.00 | 0.00 | 0.00 | 30 | 1022.0 |
| 20260906042738 | 78 | 276 | 3.0 | 4.0 | 0.00 | 0.00 | 0.00 | 30 | 1022.1 |
| 20260906042237 | 78 | 281 | 4.0 | 4.0 | 0.00 | 0.00 | 0.00 | 31 | 1022.0 |
| 20260906041733 | 80 | 264 | 4.0 | 4.0 | 0.00 | 0.00 | 0.00 | 30 | 1021.7 |
| 20260906041228 | 80 | 293 | 3.0 | 6.0 | 0.00 | 0.00 | 0.00 | 29 | 1022.0 |
| 20260906040724 | 80 | 274 | 4.0 | 7.0 | 0.00 | 0.00 | 0.00 | 29 | 1021.8 |
| 20260906040219 | 80 | 302 | 3.0 | 7.0 | 0.00 | 0.00 | 0.00 | 29 | 1021.7 |
| 20260906035715 | 80 | 283 | 3.0 | 6.0 | 0.00 | 0.00 | 0.00 | 29 | 1021.8 |
| 20260906035211 | 81 | 270 | 3.0 | 3.0 | 0.00 | 0.00 | 0.00 | 29 | 1021.7 |
| 20260906034710 | 81 | 295 | 4.0 | 6.0 | 0.00 | 0.00 | 0.00 | 29 | 1022.1 |
| 20260906034205 | 81 | 316 | 4.0 | 6.0 | 0.00 | 0.00 | 0.00 | 29 | 1022.0 |
| 20260906033701 | 81 | 270 | 3.0 | 7.0 | 0.00 | 0.00 | 0.00 | 29 | 1022.0 |
| 20260906033200 | 81 | 250 | 4.0 | 6.0 | 0.00 | 0.00 | 0.00 | 29 | 1021.6 |
| 20260906032657 | 80 | 298 | 6.0 | 7.0 | 0.00 | 0.00 | 0.00 | 30 | 1021.8 |
| 20260906032152 | 80 | 294 | 5.0 | 7.0 | 0.00 | 0.00 | 0.00 | 30 | 1021.8 |
| 20260906031647 | 80 | 279 | 5.0 | 8.0 | 0.00 | 0.00 | 0.00 | 30 | 1021.5 |
| 20260906031142 | 80 | 276 | 4.0 | 6.0 | 0.00 | 0.00 | 0.00 | 30 | 1021.4 |
| 20260906030642 | 80 | 271 | 4.0 | 7.0 | 0.00 | 0.00 | 0.00 | 30 | 1021.4 |
| 20260906030137 | 79 | 305 | 4.0 | 7.0 | 0.00 | 0.00 | 0.00 | 30 | 1021.3 |
| 20260906025636 | 80 | 293 | 5.0 | 7.0 | 0.00 | 0.00 | 0.00 | 30 | 1021.3 |
| 20260906025136 | 80 | 282 | 5.0 | 6.0 | 0.00 | 0.00 | 0.00 | 30 | 1021.3 |
| 20260906024625 | 80 | 288 | 5.0 | 7.0 | 0.00 | 0.00 | 0.00 | 30 | 1021.1 |
| 20260906024119 | 81 | 270 | 4.0 | 6.0 | 0.00 | 0.00 | 0.00 | 30 | 1021.0 |
| 20260906023615 | 81 | 274 | 3.0 | 4.0 | 0.00 | 0.00 | 0.00 | 30 | 1021.0 |
| 20260906023115 | 81 | 248 | 4.0 | 7.0 | 0.00 | 0.00 | 0.00 | 30 | 1020.9 |
| 20260906022610 | 82 | 268 | 5.0 | 7.0 | 0.00 | 0.00 | 0.00 | 30 | 1020.9 |
| 20260906022106 | 82 | 289 | 5.0 | 7.0 | 0.00 | 0.00 | 0.00 | 30 | 1020.9 |
| 20260906021602 | 82 | 280 | 4.0 | 4.0 | 0.00 | 0.00 | 0.00 | 30 | 1020.7 |
| 20260906021100 | 82 | 293 | 4.0 | 6.0 | 0.00 | 0.00 | 0.00 | 30 | 1020.7 |
| 20260906020554 | 83 | 296 | 4.0 | 4.0 | 0.00 | 0.00 | 0.00 | 29 | 1020.7 |
| 20260906020054 | 83 | 285 | 5.0 | 6.0 | 0.00 | 0.00 | 0.00 | 29 | 1020.7 |
| 20260906015553 | 84 | 262 | 3.0 | 4.0 | 0.00 | 0.00 | 0.00 | 28 | 1020.7 |
| 20260906015047 | 84 | 277 | 2.0 | 4.0 | 0.00 | 0.00 | 0.00 | 28 | 1020.6 |
| 20260906014543 | 85 | 277 | 3.0 | 4.0 | 0.00 | 0.00 | 0.00 | 27 | 1020.6 |
| 20260906014039 | 86 | 278 | 3.0 | 6.0 | 0.00 | 0.00 | 0.00 | 27 | 1020.6 |
| 20260906013533 | 86 | 270 | 4.0 | 6.0 | 0.00 | 0.00 | 0.00 | 27 | 1020.6 |
| 20260906013029 | 86 | 278 | 4.0 | 7.0 | 0.00 | 0.00 | 0.00 | 27 | 1020.7 |
| 20260906012524 | 86 | 263 | 5.0 | 8.0 | 0.00 | 0.00 | 0.00 | 27 | 1020.7 |
| 20260906012023 | 87 | 282 | 4.0 | 8.0 | 0.00 | 0.00 | 0.00 | 26 | 1020.6 |
| 20260906011520 | 87 | 347 | 4.0 | 8.0 | 0.00 | 0.00 | 0.00 | 26 | 1020.4 |
| 20260906011020 | 87 | 243 | 7.0 | 9.0 | 0.00 | 0.00 | 0.00 | 26 | 1020.4 |
| 20260906010515 | 87 | 239 | 3.0 | 8.0 | 0.00 | 0.00 | 0.00 | 26 | 1020.2 |
| 20260906010011 | 88 | 287 | 4.0 | 6.0 | 0.00 | 0.00 | 0.00 | 26 | 1020.4 |
| 20260906005510 | 88 | 251 | 6.0 | 9.0 | 0.00 | 0.00 | 0.00 | 26 | 1020.6 |
| 20260906005009 | 89 | 260 | 6.0 | 8.0 | 0.00 | 0.00 | 0.00 | 26 | 1020.6 |
| 20260906004508 | 89 | 271 | 4.0 | 7.0 | 0.00 | 0.00 | 0.00 | 25 | 1020.7 |
| 20260906004003 | 89 | 296 | 8.0 | 10.0 | 0.00 | 0.00 | 0.00 | 25 | 1020.9 |
| 20260906003459 | 90 | 276 | 5.0 | 7.0 | 0.00 | 0.00 | 0.00 | 25 | 1020.7 |
| 20260906002954 | 89 | 244 | 3.0 | 6.0 | 0.00 | 0.00 | 0.00 | 25 | 1020.8 |
| 20260906002454 | 89 | 293 | 8.0 | 9.0 | 0.00 | 0.00 | 0.00 | 26 | 1020.7 |
| 20260906001950 | 90 | 257 | 4.0 | 8.0 | 0.00 | 0.00 | 0.00 | 25 | 1020.6 |
| 20260906001445 | 89 | 305 | 4.0 | 7.0 | 0.00 | 0.00 | 0.00 | 26 | 1020.7 |
| 20260906000940 | 89 | 242 | 5.0 | 7.0 | 0.00 | 0.00 | 0.00 | 25 | 1020.6 |
| 20260906000436 | 90 | 325 | 5.0 | 10.0 | 0.00 | 0.00 | 0.00 | 25 | 1020.6 |
| 20260905235925 | 90 | 247 | 5.0 | 6.0 | 0.00 | 0.00 | 0.00 | 25 | 1020.6 |
| 20260905235424 | 90 | 308 | 2.0 | 4.0 | 0.00 | 0.00 | 0.00 | 26 | 1020.6 |
| 20260905234920 | 91 | 272 | 6.0 | 10.0 | 0.00 | 0.00 | 0.00 | 25 | 1020.8 |
| 20260905234415 | 89 | 313 | 4.0 | 6.0 | 0.00 | 0.00 | 0.00 | 25 | 1020.6 |
| 20260905233909 | 89 | 314 | 4.0 | 7.0 | 0.00 | 0.00 | 0.00 | 26 | 1020.3 |
| 20260905233405 | 89 | 280 | 7.0 | 8.0 | 0.00 | 0.00 | 0.00 | 25 | 1020.6 |
| 20260905232903 | 89 | 270 | 5.0 | 10.0 | 0.00 | 0.00 | 0.00 | 25 | 1020.6 |
| 20260905232400 | 91 | 299 | 7.0 | 11.0 | 0.00 | 0.00 | 0.00 | 25 | 1020.4 |
| 20260905231855 | 91 | 262 | 6.0 | 10.0 | 0.00 | 0.00 | 0.00 | 25 | 1020.8 |